This demonstration page uses our WeatherBlox Daily Observations layout. Learn more.

Left ArrowRight Arrow

38.80484, -77.04692

Hourly Observations for November 4, 2020

Temp ( °F °C ) Dew Point ( °F °C ) Humidity (%) Winds ( mph kmh ) Pressure ( in mb ) Visibility ( mi km ) Precip ( " mm )
12:52 am 00:52 Clear 46 7.8 39 3.9 77 77 Calm 30.34 1027 10 16.0934 0 0
1:52 am 01:52 Clear 43 6.1 39 3.9 86 86 N 3 6 30.35 1028 10 16.0934 0 0
2:52 am 02:52 Clear 44 6.7 39 3.9 83 83 NE 5 7 30.37 1028 10 16.0934 0 0
3:52 am 03:52 Mostly Clear 44 6.7 40 4.4 85 85 Calm 30.38 1029 10 16.0934 0 0
4:52 am 04:52 Mostly Clear 43 6.1 40 4.4 89 89 Calm 30.4 1029 10 16.0934 0 0
5:52 am 05:52 Clear 43 6.1 40 4.4 89 89 Calm 30.41 1030 10 16.0934 0 0
6:52 am 06:52 Sunny 42 5.6 39 3.9 89 89 Calm 30.43 1030 8 12.87472 0 0
7:52 am 07:52 Sunny 45 7.2 42 5.6 90 90 Calm 30.45 1031 10 16.0934 0 0
8:52 am 08:52 Sunny 49 9.4 43 6.1 80 80 Calm 30.47 1032 10 16.0934 0 0
9:52 am 09:52 Sunny 51 10.6 45 7.2 80 80 S 8 13 30.47 1032 10 16.0934 0 0
10:52 am 10:52 Sunny 57 13.9 44 6.7 62 62 S 9 15 30.47 1032 10 16.0934 0 0
11:52 am 11:52 Sunny 63 17.2 42 5.6 47 47 S 10 17 30.45 1031 10 16.0934 0 0
12:52 pm 12:52 Sunny 65 18.3 42 5.6 43 43 S 10 17 30.43 1030 10 16.0934 0 0
1:52 pm 13:52 Sunny 66 18.9 41 5 40 40 SSE 10 17 30.42 1030 10 16.0934 0 0
2:52 pm 14:52 Sunny 66 18.9 41 5 40 40 S 8 13 30.42 1030 10 16.0934 0 0
3:52 pm 15:52 Sunny 64 17.8 41 5 43 43 S 9 15 30.42 1030 10 16.0934 0 0
4:52 pm 16:52 Sunny 61 16.1 41 5 48 48 SSE 8 13 30.42 1030 10 16.0934 0 0
5:52 pm 17:52 Clear 59 15 42 5.6 54 54 S 6 9 30.43 1031 10 16.0934 0 0
6:52 pm 18:52 Clear 56 13.3 43 6.1 62 62 S 8 13 30.45 1031 10 16.0934 0 0
7:52 pm 19:52 Clear 54 12.2 45 7.2 72 72 S 8 13 30.45 1031 10 16.0934 0 0
8:52 pm 20:52 Clear 54 12.2 45 7.2 72 72 S 8 13 30.45 1031 10 16.0934 0 0
9:52 pm 21:52 Clear 53 11.7 46 7.8 77 77 SSW 8 13 30.46 1032 10 16.0934 0 0
10:52 pm 22:52 Clear 51 10.6 46 7.8 83 83 SSW 7 11 30.46 1032 10 16.0934 0 0
11:52 pm 23:52 Clear 52 11.1 48 8.9 86 86 SSW 6 9 30.45 1031 10 16.0934 0 0

Powered by AerisWeather